sat.trackr.live / text

‹ back to catalog

STARLINK-38024

NORAD 69975 · 2026-159A

PAYLOAD ACTIVE UNKNOWN

§ Identity

Operator
Country
US
Launch date
2026-07-11
Launch site
AFWTR
Launch vehicle
Mass (kg)
RCS (m²)

Purposes: comms

External: N2YO · Heavens-Above · Gunter

§ Orbital elements

Epoch: 2026-09-19T08:51:38.173248Z

Period
92.95 min
Inclination
97.2848°
Eccentricity
0.0001769
Mean motion
15.49207568 rev/d
Perigee alt
417.8 km
Apogee alt
420.2 km
Semi-major
6,797.2 km
B*
5.7686e-4
RAAN
104.1992°
Arg perigee
92.0519°
Mean anomaly
268.0935°
Rev number
1,227

§ Raw data

STARLINK-380241 69975U 26159A   26262.36919182  .00031430  00000+0  57686-3 0  99912 69975  97.2848 104.1992 0001769  92.0519 268.0935 15.49207568 12273

JSON: /api/v1/satellites/69975 · /tle

For live sub-satellite position, see the globe view (requires WebGL).

§ Visibility from observer

Set your observer location to see the next 7 days of passes ≥ 10°. The values pass through the URL so the page stays shareable.

No JS? Fill the form by hand. The geolocation button needs JavaScript.